FW8363 Weather Reports


Display with metric or nautical units.
time (UTC)temp
F
wind
direction
speed
MPH
gust
MPH
rain 1hr
in
rain 24hr
in
rain mn
in
humidity
%
barometer
mb
20260507151012 -44 234 0.0 7.0 0.00 0.00 0.00 1018.7
20260507145114 -44 134 2.0 7.0 0.00 0.00 0.00 1018.7
20260507143508 -46 134 3.0 8.0 0.00 0.00 0.00 1018.6
20260507142652 -46 153 4.0 7.0 0.00 0.00 0.00 1018.6
20260507141044 -46 142 2.0 6.0 0.00 0.00 0.00 1018.6
20260507135032 -46 136 3.0 9.0 0.00 0.00 0.00 1018.5
20260507132621 -45 128 1.0 6.0 0.00 0.00 0.00 1018.3
20260507131010 -45 157 3.0 7.0 0.00 0.00 0.00 1018.2
20260507125029 -45 124 2.0 7.0 0.00 0.00 0.00 1018.0
20260507122607 -45 138 4.0 8.0 0.00 0.00 0.00 1018.1
20260507115113 -46 130 2.0 6.0 0.00 0.00 0.00 1017.5
20260507113507 -46 130 1.0 7.0 0.00 0.00 0.00 1017.4
20260507112651 -46 130 0.0 5.0 0.00 0.00 0.00 1017.4
20260507111043 -46 192 1.0 5.0 0.00 0.00 0.00 1017.3
20260507104200 -46 156 5.0 10.0 0.00 0.00 0.00 1016.7
20260507102629 -46 138 3.0 9.0 0.00 0.00 0.00 1016.7
20260507101021 -46 149 3.0 8.0 0.00 0.00 0.00 1016.6
20260507095651 -46 114 3.0 7.0 0.00 0.00 0.00 1016.6
20260507094043 -44 117 5.0 8.0 0.00 0.00 0.00 1016.5
20260507091646 -44 122 3.0 8.0 0.00 0.00 0.00 1016.4
20260507084137 -46 134 4.0 11.0 0.00 0.00 0.00 1016.3
20260507082544 -46 128 4.0 9.0 0.00 0.00 0.00 1016.3
20260507075124 -44 124 6.0 11.0 0.00 0.00 0.00 1016.5
20260507072630 -46 141 6.0 11.0 0.00 0.00 0.00 1016.6
20260507071021 -46 117 6.0 10.0 0.00 0.00 0.00 1016.8
20260507064605 -46 115 7.0 13.0 0.00 0.00 0.00 1017.0
20260507063043 -44 134 7.0 10.0 0.00 0.00 0.00 1017.4
20260507060634 -46 122 6.0 11.0 0.00 0.00 0.00 1017.3
20260507055028 -46 98 5.0 12.0 0.00 0.00 0.00 1017.3
20260507052629 -46 119 7.0 11.0 0.00 0.00 0.00 1017.4
20260507051005 -44 117 6.0 11.0 0.00 0.00 0.00 1017.6
20260507045009 -46 125 6.0 9.0 0.00 0.00 0.00 1017.7
20260507044158 -46 120 5.0 10.0 0.00 0.00 0.00 1017.9
20260507042609 -46 134 5.0 10.0 0.00 0.00 0.00 1018.0
20260507035006 -44 100 8.0 12.0 0.00 0.00 0.00 1018.0
20260507034157 -44 122 6.0 11.0 0.00 0.00 0.00 1018.0
20260507032543 -46 121 7.0 11.0 0.00 0.00 0.00 1018.1
20260507025028 -44 107 7.0 10.0 0.00 0.00 0.00 1017.9
20260507022606 -46 111 7.0 11.0 0.00 0.00 0.00 1017.8
20260507021024 -46 101 5.0 10.0 0.00 0.00 0.00 1017.7
20260507015012 -46 90 5.0 10.0 0.00 0.00 0.00 1017.6
20260507012628 -46 74 4.0 9.0 0.00 0.00 0.00 1017.6
20260507011021 -46 60 5.0 9.0 0.00 0.00 0.00 1017.7
20260507005027 -46 90 3.0 5.0 0.00 0.00 0.00 1017.8
20260507002605 -44 95 2.0 6.0 0.00 0.00 0.00 1017.6
20260506235035 -46 130 4.0 7.0 0.00 0.00 0.00 1017.4
20260506232649 -45 147 5.0 8.0 0.00 0.00 0.00 1017.3
20260506231043 -46 94 5.0 8.0 0.00 0.00 0.00 1017.3
20260506225050 -46 135 3.0 8.0 0.00 0.00 0.00 1017.3
20260506222650 -45 130 4.0 7.0 0.00 0.00 0.00 1017.0
20260506221042 -46 74 4.0 6.0 0.00 0.00 0.00 1017.0
20260506214143 -46 107 5.0 9.0 0.00 0.00 0.00 1017.0
20260506212542 -44 128 6.0 9.0 0.00 0.00 0.00 1017.0
20260506210048 -46 105 4.0 8.0 0.00 0.00 0.00 1016.9
20260506204158 -44 157 5.0 11.0 0.00 0.00 0.00 1017.1
20260506202542 -46 130 6.0 11.0 0.00 0.00 0.00 1017.2
20260506195053 -44 178 5.0 9.0 0.00 0.00 0.00 1017.4
20260506192628 -45 157 4.0 9.0 0.00 0.00 0.00 1017.5
20260506191020 -45 157 6.0 10.0 0.00 0.00 0.00 1017.7
20260506185028 -45 155 4.0 11.0 0.00 0.00 0.00 1017.9
20260506182615 -45 180 3.0 7.0 0.00 0.00 0.00 1018.2
20260506181019 -45 131 3.0 9.0 0.00 0.00 0.00 1018.4
20260506175010 -45 117 4.0 8.0 0.00 0.00 0.00 1018.5
20260506174158 -45 122 5.0 9.0 0.00 0.00 0.00 1018.6
20260506172541 -44 121 7.0 11.0 0.00 0.00 0.00 1018.7
20260506165135 -44 94 4.0 9.0 0.00 0.00 0.00 1018.8
20260506163534 -45 118 5.0 9.0 0.00 0.00 0.00 1018.9
20260506161106 -45 138 3.0 9.0 0.00 0.00 0.00 1018.7
20260506154135 -44 146 4.0 9.0 0.00 0.00 0.00 1018.8
20260506152521 -44 86 4.0 8.0 0.00 0.00 0.00 1018.8